Location: *
(49.8044°N, 4.0558°E)
Time: 02:21:43
(UTC+00:00)

Abrixas rocket - Pass Details

Date: 09 April 2020
Orbit: 344 x 351 km, 48.4° (Epoch: 04 June)

Event Time Altitude Azimuth Distance (km) Brightness Sun altitude
Rises 19:54:54 0° 277° (W) 2,167 7.2 -13.7°
Reaches altitude 10° 19:57:04 10° 265° (W) 1,325 5.6 -14.0°
Maximum altitude 19:59:40 28° 204° (SSW) 706 3.3 -14.4°
Enters shadow 20:00:33 23° 172° (S) 804 3.3 -14.5°
